This is the latest recevied weather packets stored in our database for station/object OE-11361. If no packets are shown the sender has not sent any weather packets the latest 10 day(s).
| Time | Temp. | Humidity | Pressure | Rain* | Wind** | Luminosity | Snow |
|---|---|---|---|---|---|---|---|
| 1788050476 | 15.56° C | 85% | 1017.6 hPa | 0 mm | - | 0 W/m² | - |
| 1788050104 | 15.56° C | 84% | 1017.5 hPa | 0 mm | - | 0 W/m² | - |
| 1788049504 | 15.56° C | 85% | 1017.4 hPa | 0 mm | - | 0 W/m² | - |
| 1788048676 | 15.56° C | 83% | 1017.3 hPa | 0 mm | - | 0 W/m² | - |
| 1788048304 | 15.56° C | 85% | 1017.3 hPa | 0 mm | - | 0 W/m² | - |
| 1788047704 | 15.56° C | 83% | 1017.2 hPa | 0 mm | - | 0 W/m² | - |
| 1788046876 | 15.56° C | 85% | 1017.3 hPa | 0 mm | - | 0 W/m² | - |
| 1788046504 | 15.56° C | 84% | 1017 hPa | 0 mm | - | 0 W/m² | - |
| 1788045903 | 15.56° C | 82% | 1017 hPa | 0 mm | - | 0 W/m² | - |
| 1788045304 | 15.56° C | 81% | 1017 hPa | 0 mm | - | 0 W/m² | - |
| 1788044704 | 15.56° C | 82% | 1017 hPa | 0 mm | - | 0 W/m² | - |
| 1788044104 | 15.56° C | 83% | 1016.9 hPa | 0 mm | - | 0 W/m² | - |
| 1788043277 | 15.56° C | 84% | 1016.9 hPa | 0 mm | - | 0 W/m² | - |
| 1788042903 | 15.56° C | 84% | 1017 hPa | 0 mm | - | 0 W/m² | - |
| 1788042303 | 15.56° C | 84% | 1016.9 hPa | 0 mm | - | 0 W/m² | - |
| 1788041477 | 15.56° C | 84% | 1016.9 hPa | 0 mm | - | 0 W/m² | - |
| 1788041104 | 15.56° C | 82% | 1016.9 hPa | 0 mm | - | 0 W/m² | - |
| 1788040504 | 15.56° C | 83% | 1016.7 hPa | 0 mm | - | 0 W/m² | - |
| 1788039677 | 15.56° C | 82% | 1016.9 hPa | 0 mm | - | 0 W/m² | - |
| 1788039303 | 16.11° C | 80% | 1016.6 hPa | 0 mm | - | 0 W/m² | - |
| 1788038704 | 16.67° C | 78% | 1016.5 hPa | 0 mm | - | 0 W/m² | - |
| 1788037877 | 16.67° C | 78% | 1016.5 hPa | 0 mm | - | 0 W/m² | - |
| 1788037503 | 16.67° C | 80% | 1016.4 hPa | 0 mm | - | 0 W/m² | - |
| 1788036904 | 16.67° C | 79% | 1016.5 hPa | 0 mm | - | 0 W/m² | - |
| 1788036077 | 16.67° C | 76% | 1016.2 hPa | 0 mm | - | 0 W/m² | - |
* Rain latest hour (hover to see other rain measurements)
** Current wind speed in m/s (hover to see current wind gust speed)